| time (UTC) | temp C | wind direction | speed KPH | gust KPH | rain 1hr cm | rain 24hr cm | rain mn cm | humidity % | barometer mb |
| 20260510065832 | 11 | 242 | 0.0 | 0.0 | 0.00 | 0.00 | 0.00 | 94 | 1010.5 |
| 20260510065335 | 11 | 242 | 0.0 | 0.0 | 0.00 | 0.00 | 0.00 | 94 | 1010.5 |
| 20260510064842 | 11 | 242 | 1.6 | 0.0 | 0.00 | 0.00 | 0.00 | 94 | 1010.5 |
| 20260510064317 | 11 | 21 | 0.0 | 0.0 | 0.00 | 0.00 | 0.00 | 94 | 1010.6 |
| 20260510063823 | 11 | 180 | 0.0 | 0.0 | 0.00 | 0.00 | 0.00 | 94 | 1010.5 |
| 20260510063327 | 11 | 180 | 0.0 | 0.0 | 0.00 | 0.00 | 0.00 | 94 | 1010.2 |
| 20260510062835 | 11 | 144 | 0.0 | 0.0 | 0.00 | 0.00 | 0.00 | 94 | 1010.3 |
| 20260510062333 | 11 | 144 | 0.0 | 0.0 | 0.00 | 0.00 | 0.00 | 94 | 1010.2 |
| 20260510061840 | 11 | 144 | 0.0 | 0.0 | 0.00 | 0.00 | 0.00 | 94 | 1010.1 |
| 20260510061346 | 10 | 232 | 0.0 | 0.0 | 0.00 | 0.00 | 0.00 | 94 | 1010.1 |
| 20260510060831 | 10 | 232 | 0.0 | 0.0 | 0.00 | 0.00 | 0.00 | 94 | 1010.2 |
| 20260510060343 | 10 | 232 | 0.0 | 0.0 | 0.00 | 0.00 | 0.00 | 94 | 1010.2 |
| 20260510055840 | 11 | 233 | 0.0 | 0.0 | 0.00 | 0.00 | 0.00 | 94 | 1010.2 |
| 20260510055326 | 11 | 311 | 0.0 | 0.0 | 0.00 | 0.00 | 0.00 | 94 | 1010.1 |
| 20260510054830 | 11 | 65 | 0.0 | 0.0 | 0.00 | 0.00 | 0.00 | 94 | 1010.3 |
| 20260510054336 | 11 | 193 | 1.6 | 0.0 | 0.00 | 0.00 | 0.00 | 94 | 1010.4 |
| 20260510053824 | 11 | 202 | 1.6 | 0.0 | 0.00 | 0.00 | 0.00 | 94 | 1010.4 |
| 20260510053329 | 11 | 180 | 0.0 | 0.0 | 0.00 | 0.00 | 0.00 | 94 | 1010.4 |
| 20260510052834 | 11 | 254 | 0.0 | 0.0 | 0.00 | 0.00 | 0.00 | 94 | 1010.4 |
| 20260510052339 | 10 | 203 | 0.0 | 0.0 | 0.00 | 0.00 | 0.00 | 94 | 1010.3 |
| 20260510051839 | 10 | 185 | 0.0 | 0.0 | 0.00 | 0.00 | 0.00 | 94 | 1010.3 |
| 20260510051340 | 10 | 184 | 0.0 | 0.0 | 0.00 | 0.00 | 0.00 | 94 | 1010.3 |
| 20260510050822 | 10 | 184 | 0.0 | 0.0 | 0.00 | 0.00 | 0.00 | 95 | 1010.3 |
| 20260510050326 | 10 | 184 | 0.0 | 0.0 | 0.00 | 0.00 | 0.00 | 94 | 1010.1 |
| 20260510045831 | 10 | 184 | 0.0 | 0.0 | 0.00 | 0.00 | 0.00 | 95 | 1010.2 |
| 20260510045333 | 10 | 183 | 0.0 | 0.0 | 0.00 | 0.00 | 0.00 | 94 | 1010.2 |
| 20260510044842 | 9 | 184 | 0.0 | 0.0 | 0.00 | 0.00 | 0.00 | 95 | 1010.1 |
| 20260510044344 | 9 | 183 | 0.0 | 0.0 | 0.00 | 0.00 | 0.00 | 94 | 1010.2 |
| 20260510043829 | 9 | 183 | 0.0 | 0.0 | 0.00 | 0.00 | 0.00 | 94 | 1010.0 |
| 20260510043328 | 8 | 183 | 0.0 | 0.0 | 0.00 | 0.00 | 0.00 | 94 | 1010.0 |
| 20260510042831 | 8 | 180 | 0.0 | 0.0 | 0.00 | 0.00 | 0.00 | 94 | 1009.9 |
| 20260510042322 | 8 | 180 | 0.0 | 0.0 | 0.00 | 0.00 | 0.00 | 94 | 1010.0 |
| 20260510041824 | 8 | 179 | 0.0 | 0.0 | 0.00 | 0.00 | 0.00 | 94 | 1010.0 |
| 20260510041329 | 7 | 179 | 0.0 | 0.0 | 0.00 | 0.00 | 0.00 | 94 | 1009.9 |
| 20260510040834 | 7 | 179 | 0.0 | 0.0 | 0.00 | 0.00 | 0.00 | 94 | 1010.0 |
| 20260510040329 | 7 | 180 | 0.0 | 0.0 | 0.00 | 0.00 | 0.00 | 94 | 1009.9 |
| 20260510035835 | 7 | 180 | 0.0 | 0.0 | 0.00 | 0.00 | 0.84 | 94 | 1010.1 |
| 20260510035337 | 7 | 179 | 0.0 | 0.0 | 0.00 | 0.00 | 0.84 | 94 | 1010.0 |
| 20260510034818 | 7 | 180 | 0.0 | 0.0 | 0.00 | 0.00 | 0.84 | 94 | 1010.0 |
| 20260510034324 | 7 | 179 | 0.0 | 0.0 | 0.00 | 0.00 | 0.84 | 94 | 1009.8 |
| 20260510033830 | 7 | 180 | 0.0 | 0.0 | 0.00 | 0.00 | 0.84 | 94 | 1009.8 |
| 20260510033332 | 6 | 179 | 0.0 | 0.0 | 0.00 | 0.00 | 0.84 | 93 | 1009.7 |
| 20260510032839 | 6 | 180 | 0.0 | 0.0 | 0.00 | 0.00 | 0.84 | 93 | 1009.7 |
| 20260510032320 | 6 | 180 | 0.0 | 0.0 | 0.00 | 0.00 | 0.84 | 93 | 1009.6 |
| 20260510031826 | 6 | 180 | 0.0 | 0.0 | 0.00 | 0.00 | 0.84 | 93 | 1009.6 |
| 20260510031330 | 6 | 179 | 0.0 | 0.0 | 0.00 | 0.00 | 0.84 | 93 | 1009.7 |
| 20260510030841 | 6 | 180 | 0.0 | 0.0 | 0.00 | 0.00 | 0.84 | 92 | 1009.7 |
| 20260510030323 | 6 | 179 | 0.0 | 0.0 | 0.00 | 0.00 | 0.84 | 92 | 1009.8 |
| 20260510025832 | 7 | 180 | 0.0 | 0.0 | 0.00 | 0.00 | 0.84 | 93 | 1009.7 |
| 20260510025354 | 7 | 179 | 0.0 | 0.0 | 0.00 | 0.00 | 0.84 | 92 | 1009.7 |
| 20260510024837 | 7 | 180 | 0.0 | 0.0 | 0.00 | 0.00 | 0.84 | 93 | 1009.6 |
| 20260510024321 | 7 | 180 | 0.0 | 0.0 | 0.00 | 0.00 | 0.84 | 92 | 1009.5 |
| 20260510023826 | 7 | 180 | 0.0 | 0.0 | 0.00 | 0.00 | 0.84 | 92 | 1009.7 |
| 20260510023356 | 7 | 180 | 0.0 | 0.0 | 0.00 | 0.00 | 0.84 | 93 | 1009.5 |
| 20260510022820 | 7 | 180 | 0.0 | 0.0 | 0.00 | 0.00 | 0.84 | 92 | 1009.6 |
| 20260510022323 | 7 | 180 | 0.0 | 0.0 | 0.00 | 0.00 | 0.84 | 92 | 1009.5 |
| 20260510021818 | 7 | 180 | 0.0 | 0.0 | 0.00 | 0.00 | 0.84 | 92 | 1009.5 |
| 20260510021321 | 7 | 180 | 0.0 | 0.0 | 0.00 | 0.00 | 0.84 | 92 | 1009.6 |
| 20260510020822 | 7 | 180 | 0.0 | 0.0 | 0.00 | 0.00 | 0.84 | 92 | 1009.7 |
| 20260510020314 | 8 | 180 | 0.0 | 0.0 | 0.00 | 0.00 | 0.84 | 92 | 1009.6 |
| 20260510015829 | 8 | 179 | 0.0 | 0.0 | 0.00 | 0.00 | 0.84 | 92 | 1009.6 |
| 20260510015334 | 8 | 180 | 0.0 | 0.0 | 0.00 | 0.00 | 0.84 | 92 | 1009.5 |
| 20260510014831 | 8 | 180 | 0.0 | 0.0 | 0.00 | 0.00 | 0.84 | 92 | 1009.5 |
| 20260510014334 | 8 | 180 | 0.0 | 0.0 | 0.00 | 0.00 | 0.84 | 91 | 1009.5 |
| 20260510013819 | 8 | 180 | 0.0 | 0.0 | 0.00 | 0.00 | 0.84 | 92 | 1009.5 |
| 20260510013321 | 8 | 180 | 0.0 | 0.0 | 0.00 | 0.00 | 0.84 | 92 | 1009.5 |
| 20260510012828 | 8 | 179 | 0.0 | 0.0 | 0.00 | 0.00 | 0.84 | 92 | 1009.4 |
| 20260510012333 | 9 | 180 | 0.0 | 0.0 | 0.00 | 0.00 | 0.84 | 92 | 1009.3 |
| 20260510011837 | 9 | 180 | 0.0 | 0.0 | 0.00 | 0.00 | 0.84 | 91 | 1009.3 |
| 20260510011333 | 9 | 180 | 0.0 | 0.0 | 0.00 | 0.00 | 0.84 | 91 | 1009.2 |
| 20260510010839 | 9 | 179 | 0.0 | 0.0 | 0.00 | 0.00 | 0.84 | 91 | 1009.2 |
| 20260510010324 | 9 | 180 | 0.0 | 0.0 | 0.00 | 0.00 | 0.84 | 91 | 1009.2 |
| 20260510005856 | 10 | 179 | 0.0 | 0.0 | 0.00 | 0.00 | 0.84 | 91 | 1009.2 |
| 20260510005331 | 10 | 180 | 0.0 | 0.0 | 0.00 | 0.00 | 0.84 | 91 | 1009.2 |
| 20260510004833 | 10 | 180 | 0.0 | 0.0 | 0.00 | 0.00 | 0.84 | 91 | 1008.9 |
| 20260510004321 | 10 | 179 | 0.0 | 0.0 | 0.00 | 0.00 | 0.84 | 91 | 1008.9 |
| 20260510003824 | 10 | 180 | 0.0 | 0.0 | 0.00 | 0.00 | 0.84 | 91 | 1008.9 |
| 20260510003327 | 10 | 179 | 0.0 | 0.0 | 0.00 | 0.00 | 0.84 | 90 | 1009.0 |
| 20260510002838 | 10 | 179 | 0.0 | 0.0 | 0.00 | 0.00 | 0.84 | 90 | 1009.0 |
| 20260510002344 | 11 | 180 | 0.0 | 0.0 | 0.00 | 0.00 | 0.84 | 90 | 1008.8 |
| 20260510001816 | 11 | 179 | 0.0 | 0.0 | 0.00 | 0.00 | 0.84 | 90 | 1008.6 |
| 20260510001316 | 11 | 179 | 0.0 | 0.0 | 0.00 | 0.00 | 0.84 | 90 | 1008.6 |
| 20260510000820 | 11 | 179 | 0.0 | 0.0 | 0.00 | 0.00 | 0.84 | 90 | 1008.7 |
| 20260510000322 | 11 | 179 | 0.0 | 0.0 | 0.00 | 0.00 | 0.84 | 89 | 1008.7 |
| 20260509235850 | 11 | 194 | 0.0 | 0.0 | 0.00 | 0.00 | 0.84 | 89 | 1008.6 |
| 20260509235327 | 12 | 194 | 0.0 | 0.0 | 0.00 | 0.00 | 0.84 | 89 | 1008.5 |
| 20260509234832 | 12 | 194 | 0.0 | 0.0 | 0.00 | 0.00 | 0.84 | 89 | 1008.5 |
| 20260509234316 | 12 | 194 | 0.0 | 0.0 | 0.00 | 0.00 | 0.84 | 88 | 1008.4 |
| 20260509233845 | 12 | 194 | 0.0 | 0.0 | 0.00 | 0.00 | 0.84 | 87 | 1008.4 |
| 20260509233330 | 12 | 194 | 0.0 | 0.0 | 0.00 | 0.00 | 0.84 | 87 | 1008.3 |
| 20260509232835 | 12 | 194 | 0.0 | 0.0 | 0.00 | 0.00 | 0.84 | 87 | 1008.3 |
| 20260509232315 | 12 | 195 | 0.0 | 0.0 | 0.00 | 0.00 | 0.84 | 86 | 1008.3 |
| 20260509231817 | 12 | 196 | 0.0 | 0.0 | 0.00 | 0.00 | 0.84 | 86 | 1008.4 |
| 20260509231343 | 12 | 200 | 0.0 | 0.0 | 0.00 | 0.00 | 0.84 | 86 | 1008.3 |
| 20260509230817 | 12 | 201 | 0.0 | 0.0 | 0.00 | 0.00 | 0.84 | 85 | 1008.2 |
| 20260509230321 | 13 | 194 | 0.0 | 0.0 | 0.00 | 0.00 | 0.84 | 86 | 1008.3 |
| 20260509225827 | 13 | 188 | 0.0 | 0.0 | 0.00 | 0.00 | 0.84 | 86 | 1008.4 |
| 20260509225331 | 13 | 188 | 0.0 | 0.0 | 0.00 | 0.00 | 0.84 | 86 | 1008.4 |
| 20260509224817 | 13 | 175 | 0.0 | 0.0 | 0.00 | 0.00 | 0.84 | 85 | 1008.4 |
| 20260509224343 | 13 | 184 | 0.0 | 0.0 | 0.00 | 0.00 | 0.84 | 85 | 1008.4 |
| 20260509223819 | 13 | 215 | 0.0 | 0.0 | 0.00 | 0.00 | 0.84 | 85 | 1008.4 |
| 20260509223331 | 13 | 206 | 0.0 | 0.0 | 0.00 | 0.00 | 0.84 | 85 | 1008.3 |
| 20260509222816 | 13 | 193 | 0.0 | 0.0 | 0.00 | 0.00 | 0.84 | 85 | 1008.4 |
| 20260509222327 | 13 | 200 | 0.0 | 0.0 | 0.00 | 0.00 | 0.84 | 85 | 1008.3 |
| 20260509221832 | 13 | 213 | 0.0 | 0.0 | 0.00 | 0.00 | 0.84 | 85 | 1008.4 |
| 20260509221340 | 13 | 213 | 0.0 | 0.0 | 0.00 | 0.00 | 0.84 | 85 | 1008.4 |
| 20260509220816 | 13 | 224 | 1.6 | 0.0 | 0.00 | 0.00 | 0.84 | 85 | 1008.2 |
| 20260509220322 | 13 | 207 | 1.6 | 0.0 | 0.00 | 0.00 | 0.84 | 84 | 1008.3 |
| 20260509215827 | 13 | 192 | 0.0 | 0.0 | 0.00 | 0.00 | 0.84 | 84 | 1008.3 |
| 20260509215332 | 13 | 213 | 0.0 | 0.0 | 0.00 | 0.00 | 0.84 | 83 | 1008.2 |
| 20260509214838 | 14 | 234 | 0.0 | 0.0 | 0.00 | 0.00 | 0.84 | 83 | 1008.4 |
| 20260509214313 | 14 | 308 | 0.0 | 0.0 | 0.00 | 0.00 | 0.84 | 84 | 1008.4 |
| 20260509213818 | 13 | 209 | 1.6 | 0.0 | 0.00 | 0.00 | 0.84 | 84 | 1008.4 |
| 20260509213324 | 13 | 180 | 1.6 | 0.0 | 0.00 | 0.00 | 0.84 | 85 | 1008.4 |
| 20260509212832 | 13 | 232 | 1.6 | 0.0 | 0.00 | 0.00 | 0.84 | 85 | 1008.4 |
| 20260509212316 | 13 | 240 | 1.6 | 0.0 | 0.00 | 0.00 | 0.84 | 87 | 1008.4 |
| 20260509211840 | 13 | 196 | 0.0 | 0.0 | 0.00 | 0.00 | 0.84 | 90 | 1008.5 |
| 20260509211321 | 13 | 215 | 0.0 | 0.0 | 0.00 | 0.00 | 0.84 | 89 | 1008.6 |
| 20260509210826 | 13 | 264 | 0.0 | 0.0 | 0.00 | 0.00 | 0.84 | 89 | 1008.6 |
| 20260509210352 | 13 | 200 | 0.0 | 0.0 | 0.00 | 0.00 | 0.84 | 88 | 1008.6 |
| 20260509205838 | 13 | 206 | 0.0 | 0.0 | 0.00 | 0.00 | 0.84 | 89 | 1008.7 |
| 20260509205341 | 12 | 187 | 0.0 | 0.0 | 0.00 | 0.00 | 0.84 | 91 | 1008.7 |
| 20260509204815 | 12 | 202 | 0.0 | 0.0 | 0.00 | 0.00 | 0.84 | 90 | 1008.7 |
| 20260509204325 | 12 | 206 | 0.0 | 0.0 | 0.00 | 0.00 | 0.84 | 91 | 1008.7 |
| 20260509203850 | 12 | 210 | 0.0 | 0.0 | 0.00 | 0.00 | 0.81 | 90 | 1008.8 |
| 20260509203405 | 12 | 205 | 1.6 | 0.0 | 0.00 | 0.00 | 0.81 | 90 | 1008.8 |
| 20260509202842 | 12 | 199 | 3.2 | 0.0 | 0.00 | 0.00 | 0.81 | 90 | 1008.8 |
| 20260509202313 | 12 | 224 | 0.0 | 0.0 | 0.00 | 0.00 | 0.81 | 91 | 1008.8 |
| 20260509201821 | 12 | 200 | 0.0 | 0.0 | 0.00 | 0.00 | 0.81 | 91 | 1008.9 |
| 20260509201328 | 12 | 184 | 0.0 | 0.0 | 0.00 | 0.00 | 0.81 | 91 | 1009.0 |
| 20260509200830 | 12 | 179 | 0.0 | 0.0 | 0.00 | 0.00 | 0.81 | 91 | 1008.9 |
| 20260509200319 | 12 | 197 | 0.0 | 0.0 | 0.00 | 0.00 | 0.81 | 91 | 1008.8 |
| 20260509195842 | 11 | 194 | 0.0 | 0.0 | 0.00 | 0.00 | 0.81 | 92 | 1008.9 |
| 20260509195317 | 11 | 190 | 0.0 | 0.0 | 0.00 | 0.00 | 0.81 | 92 | 1008.9 |
| 20260509194820 | 11 | 187 | 0.0 | 0.0 | 0.00 | 0.00 | 0.81 | 91 | 1008.9 |
| 20260509194356 | 11 | 196 | 0.0 | 0.0 | 0.00 | 0.00 | 0.81 | 91 | 1009.1 |
| 20260509193858 | 11 | 198 | 0.0 | 0.0 | 0.00 | 0.00 | 0.81 | 92 | 1009.2 |
| 20260509193340 | 11 | 198 | 0.0 | 0.0 | 0.00 | 0.00 | 0.79 | 91 | 1009.4 |
| 20260509192840 | 11 | 195 | 0.0 | 0.0 | 0.00 | 0.00 | 0.76 | 92 | 1009.4 |
| 20260509192333 | 11 | 202 | 0.0 | 0.0 | 0.00 | 0.00 | 0.76 | 91 | 1009.5 |
| 20260509191818 | 11 | 206 | 0.0 | 0.0 | 0.00 | 0.00 | 0.71 | 91 | 1009.7 |
| 20260509191344 | 11 | 207 | 0.0 | 0.0 | 0.00 | 0.00 | 0.71 | 91 | 1009.9 |
| 20260509190830 | 11 | 192 | 0.0 | 0.0 | 0.00 | 0.00 | 0.69 | 91 | 1009.9 |
| 20260509190314 | 11 | 192 | 0.0 | 0.0 | 0.00 | 0.00 | 0.66 | 91 | 1010.0 |
| 20260509185820 | 11 | 186 | 0.0 | 0.0 | 0.00 | 0.00 | 0.66 | 91 | 1010.1 |
| 20260509185322 | 11 | 187 | 0.0 | 0.0 | 0.00 | 0.00 | 0.64 | 91 | 1010.1 |
| 20260509184821 | 11 | 195 | 0.0 | 0.0 | 0.00 | 0.00 | 0.61 | 91 | 1010.2 |
| 20260509184327 | 11 | 188 | 0.0 | 0.0 | 0.00 | 0.00 | 0.61 | 91 | 1010.1 |
| 20260509183835 | 11 | 198 | 0.0 | 0.0 | 0.00 | 0.00 | 0.58 | 90 | 1010.1 |
| 20260509183319 | 11 | 210 | 0.0 | 0.0 | 0.00 | 0.00 | 0.56 | 91 | 1010.1 |
| 20260509182825 | 11 | 201 | 0.0 | 0.0 | 0.00 | 0.00 | 0.56 | 91 | 1010.1 |
| 20260509182328 | 11 | 189 | 0.0 | 0.0 | 0.00 | 0.00 | 0.53 | 90 | 1010.2 |
| 20260509181830 | 11 | 194 | 0.0 | 0.0 | 0.00 | 0.00 | 0.51 | 90 | 1010.2 |
| 20260509181322 | 11 | 198 | 0.0 | 0.0 | 0.00 | 0.00 | 0.48 | 90 | 1010.1 |
| 20260509180828 | 11 | 199 | 0.0 | 0.0 | 0.00 | 0.00 | 0.48 | 90 | 1010.2 |
| 20260509180338 | 11 | 199 | 0.0 | 0.0 | 0.00 | 0.00 | 0.46 | 90 | 1010.2 |
| 20260509175820 | 11 | 200 | 0.0 | 0.0 | 0.00 | 0.00 | 0.41 | 90 | 1010.2 |
| 20260509175323 | 11 | 242 | 0.0 | 0.0 | 0.00 | 0.00 | 0.38 | 90 | 1010.2 |
| 20260509174850 | 11 | 286 | 0.0 | 0.0 | 0.00 | 0.00 | 0.36 | 90 | 1010.3 |
| 20260509174315 | 11 | 199 | 0.0 | 0.0 | 0.00 | 0.00 | 0.33 | 89 | 1010.4 |
| 20260509173816 | 11 | 205 | 0.0 | 0.0 | 0.00 | 0.00 | 0.30 | 89 | 1010.3 |
| 20260509173319 | 11 | 203 | 0.0 | 0.0 | 0.00 | 0.00 | 0.25 | 90 | 1010.3 |
| 20260509172824 | 11 | 202 | 0.0 | 0.0 | 0.00 | 0.00 | 0.23 | 89 | 1010.6 |
| 20260509172336 | 11 | 227 | 0.0 | 0.0 | 0.00 | 0.00 | 0.20 | 89 | 1010.5 |
| 20260509171816 | 11 | 213 | 0.0 | 0.0 | 0.00 | 0.00 | 0.18 | 88 | 1010.5 |
| 20260509171322 | 12 | 203 | 0.0 | 0.0 | 0.00 | 0.00 | 0.15 | 88 | 1010.5 |
| 20260509170829 | 12 | 213 | 0.0 | 0.0 | 0.00 | 0.00 | 0.13 | 87 | 1010.4 |
| 20260509170336 | 12 | 207 | 0.0 | 0.0 | 0.00 | 0.00 | 0.10 | 87 | 1010.4 |
| 20260509165815 | 12 | 203 | 0.0 | 0.0 | 0.00 | 0.00 | 0.10 | 86 | 1010.5 |
| 20260509165323 | 12 | 195 | 1.6 | 0.0 | 0.00 | 0.00 | 0.10 | 87 | 1010.5 |
| 20260509164835 | 12 | 205 | 1.6 | 0.0 | 0.00 | 0.00 | 0.08 | 85 | 1010.4 |
| 20260509164319 | 12 | 196 | 1.6 | 0.0 | 0.00 | 0.00 | 0.08 | 86 | 1010.4 |
| 20260509163815 | 12 | 240 | 1.6 | 0.0 | 0.00 | 0.00 | 0.08 | 86 | 1010.5 |
| 20260509163319 | 12 | 212 | 1.6 | 0.0 | 0.00 | 0.00 | 0.08 | 85 | 1010.5 |
| 20260509162855 | 12 | 214 | 1.6 | 0.0 | 0.00 | 0.00 | 0.08 | 85 | 1010.5 |
| 20260509162340 | 12 | 211 | 1.6 | 0.0 | 0.00 | 0.00 | 0.08 | 84 | 1010.4 |
| 20260509161834 | 13 | 167 | 1.6 | 0.0 | 0.00 | 0.00 | 0.08 | 83 | 1010.4 |
| 20260509161315 | 13 | 234 | 3.2 | 0.0 | 0.00 | 0.00 | 0.08 | 84 | 1010.4 |
| 20260509160825 | 12 | 198 | 1.6 | 0.0 | 0.00 | 0.00 | 0.08 | 83 | 1010.5 |
| 20260509160326 | 13 | 200 | 1.6 | 0.0 | 0.00 | 0.00 | 0.08 | 83 | 1010.5 |
| 20260509155831 | 13 | 267 | 0.0 | 0.0 | 0.00 | 0.00 | 0.08 | 85 | 1010.6 |
| 20260509155337 | 13 | 233 | 0.0 | 0.0 | 0.00 | 0.00 | 0.08 | 85 | 1010.6 |
| 20260509154836 | 12 | 198 | 1.6 | 0.0 | 0.00 | 0.00 | 0.08 | 85 | 1010.7 |
| 20260509154314 | 12 | 219 | 1.6 | 0.0 | 0.00 | 0.00 | 0.08 | 85 | 1010.8 |
| 20260509153850 | 12 | 196 | 1.6 | 0.0 | 0.00 | 0.00 | 0.08 | 87 | 1010.8 |
| 20260509153322 | 12 | 216 | 1.6 | 0.0 | 0.00 | 0.00 | 0.08 | 87 | 1010.9 |
| 20260509152827 | 12 | 205 | 0.0 | 0.0 | 0.00 | 0.00 | 0.08 | 87 | 1010.8 |
| 20260509152331 | 12 | 186 | 0.0 | 0.0 | 0.00 | 0.00 | 0.08 | 87 | 1010.4 |
| 20260509151816 | 12 | 186 | 0.0 | 0.0 | 0.00 | 0.00 | 0.08 | 86 | 1010.3 |
| 20260509151323 | 12 | 186 | 0.0 | 0.0 | 0.00 | 0.00 | 0.08 | 86 | 1010.4 |
| 20260509150828 | 12 | 186 | 0.0 | 0.0 | 0.00 | 0.00 | 0.08 | 85 | 1010.5 |
| 20260509150317 | 12 | 186 | 0.0 | 0.0 | 0.00 | 0.00 | 0.08 | 86 | 1010.6 |
| 20260509145816 | 12 | 186 | 0.0 | 0.0 | 0.00 | 0.00 | 0.08 | 85 | 1010.6 |
| 20260509145353 | 12 | 186 | 0.0 | 0.0 | 0.00 | 0.00 | 0.08 | 86 | 1010.6 |
| 20260509144834 | 11 | 180 | 0.0 | 0.0 | 0.00 | 0.00 | 0.08 | 85 | 1010.6 |
| 20260509144315 | 11 | 180 | 0.0 | 0.0 | 0.00 | 0.00 | 0.08 | 85 | 1010.7 |
| 20260509143821 | 11 | 180 | 0.0 | 0.0 | 0.00 | 0.00 | 0.05 | 85 | 1010.7 |
| 20260509143330 | 12 | 180 | 0.0 | 0.0 | 0.00 | 0.00 | 0.05 | 86 | 1010.8 |
| 20260509142833 | 11 | 180 | 0.0 | 0.0 | 0.00 | 0.00 | 0.05 | 85 | 1010.8 |
| 20260509142338 | 11 | 180 | 0.0 | 0.0 | 0.00 | 0.00 | 0.05 | 86 | 1010.9 |
| 20260509141815 | 11 | 180 | 0.0 | 0.0 | 0.00 | 0.00 | 0.05 | 86 | 1010.8 |
| 20260509141321 | 11 | 180 | 0.0 | 0.0 | 0.00 | 0.00 | 0.05 | 85 | 1010.8 |
| 20260509140845 | 11 | 178 | 0.0 | 0.0 | 0.00 | 0.00 | 0.05 | 86 | 1010.8 |
| 20260509140327 | 11 | 178 | 0.0 | 0.0 | 0.00 | 0.00 | 0.05 | 84 | 1010.7 |
| 20260509135833 | 11 | 178 | 0.0 | 0.0 | 0.00 | 0.00 | 0.05 | 85 | 1010.6 |
| 20260509135318 | 11 | 178 | 0.0 | 0.0 | 0.00 | 0.00 | 0.05 | 85 | 1010.8 |
| 20260509134820 | 11 | 207 | 0.0 | 0.0 | 0.00 | 0.00 | 0.03 | 85 | 1010.5 |
| 20260509134326 | 11 | 206 | 0.0 | 0.0 | 0.00 | 0.00 | 0.03 | 84 | 1010.5 |
| 20260509133828 | 11 | 206 | 0.0 | 0.0 | 0.00 | 0.00 | 0.03 | 82 | 1010.2 |
| 20260509133319 | 11 | 206 | 0.0 | 0.0 | 0.00 | 0.00 | 0.03 | 83 | 1010.2 |
| 20260509132825 | 11 | 207 | 0.0 | 0.0 | 0.00 | 0.00 | 0.03 | 81 | 1010.4 |
| 20260509132331 | 11 | 207 | 0.0 | 0.0 | 0.00 | 0.00 | 0.03 | 81 | 1010.3 |
| 20260509131816 | 11 | 206 | 0.0 | 0.0 | 0.00 | 0.00 | 0.03 | 82 | 1010.2 |
| 20260509131322 | 11 | 142 | 0.0 | 0.0 | 0.00 | 0.00 | 0.03 | 82 | 1010.5 |
| 20260509130827 | 11 | 144 | 0.0 | 0.0 | 0.00 | 0.00 | 0.03 | 81 | 1010.4 |
| 20260509130323 | 11 | 147 | 0.0 | 0.0 | 0.00 | 0.00 | 0.03 | 82 | 1010.6 |
| 20260509125826 | 11 | 146 | 0.0 | 0.0 | 0.00 | 0.00 | 0.03 | 81 | 1010.6 |
| 20260509125328 | 11 | 146 | 0.0 | 0.0 | 0.00 | 0.00 | 0.03 | 80 | 1010.9 |
| 20260509124834 | 11 | 146 | 0.0 | 0.0 | 0.00 | 0.00 | 0.03 | 80 | 1010.9 |
| 20260509124322 | 11 | 146 | 0.0 | 0.0 | 0.00 | 0.00 | 0.03 | 82 | 1010.8 |
| 20260509123827 | 11 | 149 | 0.0 | 0.0 | 0.00 | 0.00 | 0.03 | 83 | 1010.8 |
| 20260509123331 | 11 | 149 | 0.0 | 0.0 | 0.00 | 0.00 | 0.03 | 83 | 1011.0 |
| 20260509122815 | 11 | 150 | 0.0 | 0.0 | 0.00 | 0.00 | 0.03 | 84 | 1011.0 |
| 20260509122326 | 10 | 149 | 0.0 | 0.0 | 0.00 | 0.00 | 0.03 | 84 | 1010.9 |
| 20260509121838 | 10 | 149 | 0.0 | 0.0 | 0.00 | 0.00 | 0.03 | 85 | 1011.0 |
| 20260509121315 | 10 | 150 | 0.0 | 0.0 | 0.00 | 0.00 | 0.03 | 86 | 1010.9 |
| 20260509120822 | 10 | 149 | 0.0 | 0.0 | 0.00 | 0.00 | 0.03 | 88 | 1011.0 |
| 20260509120328 | 10 | 149 | 0.0 | 0.0 | 0.00 | 0.00 | 0.03 | 89 | 1010.9 |
| 20260509115820 | 10 | 149 | 0.0 | 0.0 | 0.00 | 0.00 | 0.03 | 89 | 1010.9 |
| 20260509115326 | 10 | 149 | 0.0 | 0.0 | 0.00 | 0.00 | 0.03 | 90 | 1010.9 |
| 20260509114835 | 10 | 149 | 0.0 | 0.0 | 0.00 | 0.00 | 0.03 | 91 | 1010.7 |
| 20260509114318 | 10 | 149 | 0.0 | 0.0 | 0.00 | 0.00 | 0.03 | 91 | 1010.6 |
| 20260509113845 | 9 | 149 | 0.0 | 0.0 | 0.00 | 0.00 | 0.03 | 91 | 1010.7 |
| 20260509113325 | 9 | 149 | 0.0 | 0.0 | 0.00 | 0.00 | 0.03 | 91 | 1010.8 |
| 20260509112835 | 9 | 149 | 0.0 | 0.0 | 0.00 | 0.00 | 0.03 | 91 | 1010.8 |
| 20260509112345 | 9 | 149 | 0.0 | 0.0 | 0.00 | 0.00 | 0.03 | 91 | 1010.8 |
| 20260509111826 | 9 | 149 | 0.0 | 0.0 | 0.00 | 0.00 | 0.03 | 91 | 1010.5 |
| 20260509111328 | 9 | 149 | 0.0 | 0.0 | 0.00 | 0.00 | 0.03 | 91 | 1010.4 |
| 20260509110832 | 8 | 149 | 0.0 | 0.0 | 0.00 | 0.00 | 0.03 | 92 | 1010.5 |
| 20260509110335 | 8 | 149 | 0.0 | 0.0 | 0.00 | 0.00 | 0.03 | 92 | 1010.3 |
| 20260509105843 | 8 | 149 | 0.0 | 0.0 | 0.00 | 0.00 | 0.03 | 92 | 1010.7 |
| 20260509105337 | 8 | 60 | 0.0 | 0.0 | 0.00 | 0.00 | 0.03 | 92 | 1010.1 |
| 20260509104822 | 8 | 63 | 0.0 | 0.0 | 0.00 | 0.00 | 0.03 | 91 | 1010.1 |
| 20260509104328 | 8 | 63 | 0.0 | 0.0 | 0.00 | 0.00 | 0.03 | 91 | 1010.2 |
| 20260509103831 | 8 | 66 | 0.0 | 0.0 | 0.00 | 0.00 | 0.03 | 91 | 1010.4 |
| 20260509103339 | 8 | 66 | 0.0 | 0.0 | 0.00 | 0.00 | 0.03 | 91 | 1010.4 |
| 20260509102841 | 8 | 65 | 0.0 | 0.0 | 0.00 | 0.00 | 0.03 | 91 | 1010.4 |
| 20260509102345 | 8 | 66 | 0.0 | 0.0 | 0.00 | 0.00 | 0.03 | 91 | 1010.4 |
| 20260509101908 | 8 | 66 | 0.0 | 0.0 | 0.00 | 0.00 | 0.03 | 91 | 1010.5 |
| 20260509101326 | 8 | 66 | 0.0 | 0.0 | 0.00 | 0.00 | 0.03 | 91 | 1010.6 |
| 20260509100833 | 8 | 66 | 0.0 | 0.0 | 0.00 | 0.00 | 0.03 | 90 | 1010.8 |
| 20260509100319 | 8 | 66 | 0.0 | 0.0 | 0.00 | 0.00 | 0.03 | 90 | 1010.6 |
| 20260509095837 | 8 | 65 | 0.0 | 0.0 | 0.00 | 0.00 | 0.03 | 90 | 1010.6 |
| 20260509095321 | 8 | 66 | 0.0 | 0.0 | 0.00 | 0.00 | 0.03 | 90 | 1010.7 |
| 20260509094828 | 8 | 66 | 0.0 | 0.0 | 0.00 | 0.00 | 0.03 | 90 | 1010.6 |
| 20260509094350 | 8 | 66 | 0.0 | 0.0 | 0.00 | 0.00 | 0.03 | 90 | 1010.6 |
| 20260509093834 | 8 | 65 | 0.0 | 0.0 | 0.00 | 0.00 | 0.03 | 90 | 1010.6 |
| 20260509093347 | 8 | 65 | 0.0 | 0.0 | 0.00 | 0.00 | 0.03 | 90 | 1010.6 |
| 20260509092829 | 8 | 65 | 0.0 | 0.0 | 0.00 | 0.00 | 0.03 | 90 | 1010.5 |
| 20260509092325 | 8 | 65 | 0.0 | 0.0 | 0.00 | 0.00 | 0.03 | 90 | 1010.6 |
| 20260509091827 | 8 | 65 | 0.0 | 0.0 | 0.00 | 0.00 | 0.03 | 90 | 1010.8 |
| 20260509091330 | 8 | 65 | 0.0 | 0.0 | 0.00 | 0.00 | 0.03 | 90 | 1010.8 |
| 20260509090836 | 8 | 66 | 0.0 | 0.0 | 0.00 | 0.00 | 0.03 | 90 | 1010.8 |
| 20260509090321 | 8 | 66 | 0.0 | 0.0 | 0.00 | 0.00 | 0.03 | 90 | 1010.9 |
| 20260509085826 | 8 | 65 | 0.0 | 0.0 | 0.00 | 0.00 | 0.03 | 90 | 1010.9 |
| 20260509085330 | 8 | 65 | 0.0 | 0.0 | 0.00 | 0.00 | 0.03 | 90 | 1011.0 |
| 20260509084838 | 8 | 66 | 0.0 | 0.0 | 0.00 | 0.00 | 0.03 | 90 | 1010.9 |
| 20260509084344 | 8 | 67 | 0.0 | 0.0 | 0.00 | 0.00 | 0.03 | 90 | 1010.9 |
| 20260509083851 | 8 | 65 | 0.0 | 0.0 | 0.00 | 0.00 | 0.03 | 90 | 1010.9 |
| 20260509083324 | 8 | 66 | 0.0 | 0.0 | 0.00 | 0.00 | 0.03 | 89 | 1011.0 |
| 20260509082826 | 8 | 66 | 0.0 | 0.0 | 0.00 | 0.00 | 0.03 | 89 | 1011.0 |
| 20260509082329 | 8 | 66 | 0.0 | 0.0 | 0.00 | 0.00 | 0.03 | 89 | 1011.1 |
| 20260509081832 | 8 | 66 | 0.0 | 0.0 | 0.00 | 0.00 | 0.03 | 88 | 1011.1 |
| 20260509081356 | 8 | 67 | 0.0 | 0.0 | 0.00 | 0.00 | 0.03 | 88 | 1011.2 |
| 20260509080838 | 8 | 66 | 0.0 | 0.0 | 0.00 | 0.00 | 0.03 | 88 | 1011.2 |
| 20260509080350 | 8 | 67 | 0.0 | 0.0 | 0.00 | 0.00 | 0.03 | 88 | 1011.1 |
| 20260509075825 | 8 | 67 | 0.0 | 0.0 | 0.00 | 0.00 | 0.03 | 88 | 1011.1 |
| 20260509075329 | 8 | 68 | 0.0 | 0.0 | 0.00 | 0.00 | 0.03 | 89 | 1011.1 |
| 20260509074831 | 8 | 69 | 0.0 | 0.0 | 0.00 | 0.00 | 0.03 | 90 | 1011.1 |
| 20260509074404 | 8 | 78 | 0.0 | 0.0 | 0.00 | 0.00 | 0.03 | 91 | 1011.2 |
| 20260509073837 | 8 | 78 | 0.0 | 0.0 | 0.00 | 0.00 | 0.03 | 91 | 1011.1 |
| 20260509073321 | 8 | 78 | 0.0 | 0.0 | 0.00 | 0.00 | 0.03 | 91 | 1011.1 |
| 20260509072830 | 8 | 78 | 0.0 | 0.0 | 0.00 | 0.00 | 0.03 | 90 | 1011.3 |
| 20260509072335 | 8 | 78 | 0.0 | 0.0 | 0.00 | 0.00 | 0.03 | 90 | 1011.3 |
| 20260509071844 | 8 | 78 | 0.0 | 0.0 | 0.00 | 0.00 | 0.03 | 90 | 1011.3 |
| 20260509071326 | 8 | 78 | 0.0 | 0.0 | 0.00 | 0.00 | 0.03 | 90 | 1011.3 |
| 20260509070830 | 8 | 78 | 0.0 | 0.0 | 0.00 | 0.00 | 0.03 | 90 | 1011.6 |
| 20260509070335 | 8 | 78 | 0.0 | 0.0 | 0.00 | 0.00 | 0.03 | 90 | 1011.6 |